Home > Time Zones > World Clock > Weather > Spain > Cadiz > Past weeks

Flag for Spain Weather past 2 weeks in Cadiz, Cádiz, Spain

Now
48 °F

Passing clouds.


Feels Like: 47 °F
Forecast: 53 / 64 °F
Wind: 3 mph from Northeast

Location: Rota Airport

Current Time: Dec 22, 2014 at 5:01:20 AM

Latest Report: Dec 22, 2014 at 4:00 AM


Visibility: 4 mi

Pressure: 30.33 "Hg

Humidity: 87%

Dew point: 45 °F

Location of CadizLocation

Historic Weather in Cadiz — Graph

°F

Cadiz temperature yesterday

Maximum temperature yesterday: 57 °F (at 4:00 PM)
Minimum temperature yesterday: 43 °F (at 9:00 AM)
Average temperature yesterday: 50 °F

Past Weeks' High & Low Weather Summary

 TemperatureHumidityPressure
High63 °F (Dec 12, 2:00 PM)100% (Dec 12, 3:00 AM)30.48 "Hg (Dec 12, 3:00 AM)
Low39 °F (Dec 8, 5:00 AM)44% (Dec 7, 3:00 PM)29.74 "Hg (Dec 14, 9:00 AM)
Average51 °F86%30.26 "Hg
* Reported Dec 7 3:00 AM — Dec 22 3:00 AM, Cadiz, Weather by CustomWeather, © 2014

Note: Actual official high and low records may vary slightly from our data, if they occured in-between our weather recording intervals... More about our weather records

Advertising

Cadiz weather history for previous 24 hours

 ConditionsComfort  
Time TempWeatherWind HumidityBarometerVisibility
3:00 AM
Dec 22
48 °FPassing clouds.8 mph94%30.33 "Hg4 mi
2:00 AM52 °FPassing clouds.6 mph82%30.33 "Hg4 mi
1:00 AM55 °FPassing clouds.8 mph72%30.36 "Hg5 mi
12:00 AM52 °FPassing clouds.9 mph82%30.36 "Hg4 mi
11:00 PM
Dec 21
54 °FPassing clouds.10 mph82%30.36 "Hg4 mi
10:00 PM52 °FPassing clouds.7 mph88%30.39 "Hg4 mi
9:00 PM52 °FPassing clouds.3 mph94%30.39 "Hg4 mi
8:00 PM52 °FFog.3 mph100%30.36 "Hg3 mi
7:00 PM54 °FFog.5 mph94%30.36 "Hg2 mi
6:00 PM55 °FFog.5 mph94%30.36 "Hg3 mi
5:00 PM55 °FPassing clouds.8 mph94%30.36 "Hg4 mi
4:00 PM57 °FPassing clouds.10 mph82%30.36 "HgN/A
3:00 PM54 °FPassing clouds.12 mph94%30.36 "Hg5 mi
2:49 PM52 °FPassing clouds.12 mph100%30.36 "Hg5 mi
2:00 PM52 °FFog.10 mph100%30.39 "Hg1 mi
1:00 PM48 °FFog.10 mph100%30.42 "Hg0 mi
12:00 PM46 °FFog.10 mph100%30.45 "Hg0 mi
11:00 AM45 °FFog.9 mph100%30.45 "Hg0 mi
10:00 AM45 °FFog.6 mph100%30.42 "Hg0 mi
9:00 AM43 °FFog.6 mph100%30.42 "Hg0 mi
8:00 AM45 °FFog.6 mph100%30.42 "Hg0 mi
7:00 AM46 °FFog.2 mph100%30.39 "Hg0 mi
6:00 AM46 °FFog.3 mph100%30.39 "Hg0 mi
5:00 AM46 °FFog.3 mph100%30.42 "Hg0 mi
Weather by CustomWeather, © 2014

See weather overviewHow to use our weather pages